Flag for Bosnia-Herzegovina Weather past 2 weeks in Tuzla, Bosnia-Herzegovina

Now
59 °F

Light rain. Fog.


Feels Like: 60 °F
Forecast: 52 / 70 °F
Wind: 3 mph from Southeast

Location: Tuzla

Current Time: Sep 16, 2014 at 2:26:19 PM

Latest Report: Sep 16, 2014 at 2:00 PM


Visibility: 1 mi

Pressure: 30.07 "Hg

Humidity: 100%

Dew point: 59 °F

Location of TuzlaLocation

Historic Weather in Tuzla — Graph

°F

Tuzla temperature yesterday

Maximum temperature yesterday: 66 °F (at 2:00 PM)
Minimum temperature yesterday: 57 °F (at 6:30 AM)
Average temperature yesterday: 61 °F

Past Weeks' High & Low Weather Summary

 TemperatureHumidityPressure
High81 °F (Sep 10, 2:00 PM)100% (Sep 1, 8:00 PM)30.07 "Hg (Sep 1, 8:00 PM)
Low55 °F (Sep 16, 6:00 AM)51% (Sep 9, 2:30 PM)29.71 "Hg (Sep 1, 6:00 PM)
Average65 °F93%29.93 "Hg
* Reported Sep 1 1:00 PM — Sep 16 1:30 PM, Tuzla, Weather by CustomWeather, © 2014

Note: Actual official high and low records may vary slightly from our data, if they occured in-between our weather recording intervals... More about our weather records

Advertising

Tuzla weather history for previous 24 hours

 ConditionsComfort  
Time TempWeatherWind HumidityBarometerVisibility
1:30 PM
Sep 16
59 °FLight rain. Fog.3 mph100%30.07 "Hg1 mi
1:00 PM59 °FLight rain. Fog.3 mph94%30.07 "Hg1 mi
12:30 PM59 °FLight rain. Partly sunny.3 mph94%30.07 "Hg4 mi
12:00 PM59 °FPartly sunny.1 mph94%30.07 "Hg4 mi
11:30 AM59 °FLight rain. Fog.1 mph94%30.07 "Hg3 mi
11:00 AM59 °FBroken clouds.1 mph94%30.07 "Hg4 mi
10:30 AM57 °FBroken clouds.2 mph100%30.07 "Hg5 mi
10:00 AM57 °FMore clouds than sun.2 mph100%30.07 "Hg5 mi
9:00 AM55 °FFog.1 mph100%30.07 "Hg2 mi
8:30 AM55 °FFog.1 mph100%30.07 "Hg2 mi
8:00 AM55 °FFog.2 mph100%30.07 "Hg1 mi
7:30 AM55 °FFog.2 mph100%30.07 "Hg1 mi
7:00 AM55 °FFog.1 mph100%30.07 "Hg1 mi
6:30 AM55 °FFog.2 mph100%30.07 "Hg1 mi
6:00 AM55 °FFog.1 mph100%30.07 "Hg1 mi
9:00 PM
Sep 15
57 °FPassing clouds.2 mph100%30.04 "HgN/A
8:00 PM57 °FPassing clouds.3 mph100%30.04 "HgN/A
7:00 PM59 °FPartly sunny.1 mph100%30.04 "HgN/A
6:00 PM61 °FPartly sunny.3 mph100%30.04 "HgN/A
5:00 PM61 °FPartly sunny.2 mph100%30.04 "HgN/A
4:00 PM63 °FPartly sunny.7 mph100%30.04 "HgN/A
3:00 PM63 °FThunderstorms. Partly sunny.3 mph100%30.04 "HgN/A
2:30 PM66 °FThunderstorms. Broken clouds.3 mph94%30.04 "Hg4 mi
2:00 PM66 °FThunderstorms. Partly sunny.9 mph88%30.04 "HgN/A
Weather by CustomWeather, © 2014

See weather overviewHow to use our weather pages